| time (UTC) | temp F | wind direction | speed MPH | gust MPH | rain 1hr in | rain 24hr in | rain mn in | humidity % | barometer mb |
| 20260906151815 | 71 | 240 | 3.0 | 4.0 | 0.00 | 0.04 | 0.01 | 92 | 1014.3 |
| 20260906151316 | 71 | 265 | 4.0 | 5.0 | 0.00 | 0.04 | 0.01 | 93 | 1014.3 |
| 20260906150815 | 71 | 274 | 3.0 | 5.0 | 0.00 | 0.04 | 0.01 | 93 | 1014.3 |
| 20260906150314 | 71 | 337 | 1.0 | 4.0 | 0.00 | 0.04 | 0.01 | 93 | 1014.3 |
| 20260906144816 | 71 | 353 | 1.0 | 4.0 | 0.00 | 0.04 | 0.01 | 95 | 1014.3 |
| 20260906144313 | 70 | 339 | 3.0 | 4.0 | 0.00 | 0.04 | 0.01 | 96 | 1014.3 |
| 20260906143815 | 69 | 311 | 2.0 | 4.0 | 0.00 | 0.04 | 0.01 | 96 | 1014.6 |
| 20260906143312 | 69 | 300 | 3.0 | 4.0 | 0.00 | 0.04 | 0.01 | 97 | 1014.3 |
| 20260906142812 | 69 | 336 | 2.0 | 4.0 | 0.00 | 0.04 | 0.01 | 97 | 1014.3 |
| 20260906142312 | 69 | 286 | 2.0 | 4.0 | 0.00 | 0.04 | 0.01 | 97 | 1014.6 |
| 20260906141811 | 69 | 342 | 2.0 | 6.0 | 0.00 | 0.04 | 0.01 | 98 | 1014.6 |
| 20260906141311 | 68 | 326 | 2.0 | 6.0 | 0.00 | 0.04 | 0.01 | 98 | 1014.3 |
| 20260906140812 | 68 | 306 | 1.0 | 5.0 | 0.00 | 0.04 | 0.01 | 98 | 1014.3 |
| 20260906140310 | 68 | 253 | 4.0 | 4.0 | 0.00 | 0.04 | 0.01 | 98 | 1014.3 |
| 20260906135811 | 68 | 312 | 2.0 | 4.0 | 0.00 | 0.04 | 0.01 | 99 | 1014.3 |
| 20260906135312 | 67 | 288 | 2.0 | 4.0 | 0.00 | 0.04 | 0.01 | 99 | 1014.3 |
| 20260906133302 | 67 | 266 | 2.0 | 2.0 | 0.00 | 0.04 | 0.01 | 99 | 1014.3 |
| 20260906132801 | 67 | 337 | 1.0 | 5.0 | 0.00 | 0.04 | 0.01 | 99 | 1014.6 |
| 20260906132300 | 66 | 243 | 2.0 | 5.0 | 0.00 | 0.04 | 0.01 | 99 | 1014.3 |
| 20260906131801 | 66 | 327 | 0.0 | 4.0 | 0.00 | 0.04 | 0.01 | 99 | 1014.3 |
| 20260906131301 | 66 | 265 | 2.0 | 4.0 | 0.00 | 0.04 | 0.01 | 99 | 1014.3 |
| 20260906130802 | 66 | 279 | 0.0 | 4.0 | 0.00 | 0.04 | 0.01 | 99 | 1014.3 |
| 20260906125803 | 65 | 291 | 4.0 | 5.0 | 0.01 | 0.04 | 0.01 | 99 | 1014.3 |
| 20260906125300 | 65 | 327 | 2.0 | 3.0 | 0.01 | 0.04 | 0.01 | 99 | 1014.3 |
| 20260906124802 | 65 | 0 | 1.0 | 3.0 | 0.01 | 0.04 | 0.01 | 99 | 1014.3 |
| 20260906124302 | 65 | 294 | 1.0 | 3.0 | 0.01 | 0.04 | 0.01 | 99 | 1013.9 |
| 20260906123801 | 65 | 8 | 0.0 | 4.0 | 0.01 | 0.04 | 0.01 | 99 | 1014.3 |
| 20260906123302 | 65 | 352 | 0.0 | 4.0 | 0.01 | 0.04 | 0.01 | 99 | 1014.3 |
| 20260906122801 | 65 | 246 | 2.0 | 2.0 | 0.01 | 0.04 | 0.01 | 99 | 1014.3 |
| 20260906122305 | 65 | 23 | 0.0 | 2.0 | 0.01 | 0.04 | 0.01 | 99 | 1014.3 |
| 20260906121801 | 64 | 66 | 0.0 | 2.0 | 0.01 | 0.04 | 0.01 | 99 | 1014.3 |
| 20260906121301 | 65 | 255 | 1.0 | 2.0 | 0.01 | 0.04 | 0.01 | 99 | 1014.3 |
| 20260906120801 | 65 | 102 | 0.0 | 2.0 | 0.01 | 0.04 | 0.01 | 99 | 1014.3 |
| 20260906120301 | 65 | 270 | 0.0 | 3.0 | 0.00 | 0.03 | 0.00 | 99 | 1013.5 |
| 20260906115802 | 64 | 311 | 2.0 | 3.0 | 0.00 | 0.03 | 0.00 | 99 | 1013.5 |
| 20260906115301 | 65 | 291 | 1.0 | 3.0 | 0.00 | 0.03 | 0.00 | 99 | 1014.3 |
| 20260906114803 | 65 | 0 | 0.0 | 2.0 | 0.00 | 0.03 | 0.00 | 99 | 1013.9 |
| 20260906114301 | 64 | 0 | 0.0 | 2.0 | 0.00 | 0.03 | 0.00 | 99 | 1013.9 |
| 20260906113801 | 64 | 0 | 0.0 | 3.0 | 0.00 | 0.03 | 0.00 | 99 | 1014.3 |
| 20260906112801 | 64 | 311 | 2.0 | 2.0 | 0.00 | 0.03 | 0.00 | 99 | 1014.3 |
| 20260906112306 | 64 | 270 | 0.0 | 4.0 | 0.00 | 0.03 | 0.00 | 99 | 1014.3 |
| 20260906111302 | 65 | 81 | 0.0 | 3.0 | 0.00 | 0.03 | 0.00 | 99 | 1014.3 |
| 20260906110801 | 64 | 0 | 0.0 | 3.0 | 0.00 | 0.03 | 0.00 | 99 | 1014.3 |
| 20260906110301 | 64 | 71 | 0.0 | 3.0 | 0.00 | 0.03 | 0.00 | 99 | 1014.3 |
| 20260906105800 | 64 | 270 | 0.0 | 2.0 | 0.00 | 0.03 | 0.00 | 99 | 1013.9 |
| 20260906104759 | 64 | 306 | 1.0 | 6.0 | 0.00 | 0.03 | 0.00 | 99 | 1013.2 |
| 20260906104258 | 64 | 300 | 1.0 | 5.0 | 0.00 | 0.03 | 0.00 | 99 | 1013.5 |
| 20260906103758 | 65 | 279 | 0.0 | 3.0 | 0.00 | 0.03 | 0.00 | 99 | 1014.3 |
| 20260906103258 | 64 | 5 | 0.0 | 3.0 | 0.00 | 0.03 | 0.00 | 99 | 1014.3 |
| 20260906102759 | 64 | 345 | 0.0 | 3.0 | 0.00 | 0.03 | 0.00 | 99 | 1014.3 |
| 20260906102257 | 64 | 354 | 1.0 | 3.0 | 0.00 | 0.03 | 0.00 | 99 | 1013.9 |
| 20260906101757 | 64 | 90 | 0.0 | 2.0 | 0.00 | 0.03 | 0.00 | 99 | 1014.3 |
| 20260906100756 | 64 | 133 | 3.0 | 5.0 | 0.00 | 0.03 | 0.00 | 99 | 1012.8 |
| 20260906100258 | 64 | 292 | 2.0 | 5.0 | 0.00 | 0.03 | 0.00 | 99 | 1012.8 |
| 20260906095756 | 64 | 337 | 1.0 | 2.0 | 0.00 | 0.03 | 0.00 | 99 | 1013.5 |
| 20260906094256 | 64 | 301 | 0.0 | 2.0 | 0.00 | 0.03 | 0.00 | 99 | 1013.5 |
| 20260906093754 | 64 | 254 | 0.0 | 6.0 | 0.00 | 0.03 | 0.00 | 99 | 1013.2 |
| 20260906093256 | 64 | 289 | 2.0 | 6.0 | 0.00 | 0.03 | 0.00 | 99 | 1013.2 |
| 20260906092754 | 64 | 300 | 1.0 | 6.0 | 0.00 | 0.03 | 0.00 | 99 | 1012.8 |
| 20260906091754 | 64 | 291 | 0.0 | 2.0 | 0.00 | 0.03 | 0.00 | 99 | 1012.8 |
| 20260906091254 | 64 | 270 | 0.0 | 4.0 | 0.00 | 0.03 | 0.00 | 99 | 1013.2 |
| 20260906090753 | 64 | 81 | 0.0 | 4.0 | 0.00 | 0.03 | 0.00 | 99 | 1013.2 |
| 20260906090253 | 64 | 258 | 2.0 | 3.0 | 0.00 | 0.03 | 0.00 | 99 | 1012.8 |
| 20260906085753 | 64 | 11 | 0.0 | 6.0 | 0.00 | 0.03 | 0.00 | 99 | 1012.8 |
| 20260906085252 | 64 | 306 | 1.0 | 6.0 | 0.00 | 0.03 | 0.00 | 99 | 1012.5 |
| 20260906084253 | 64 | 270 | 0.0 | 7.0 | 0.00 | 0.03 | 0.00 | 99 | 1012.8 |
| 20260906083751 | 64 | 290 | 2.0 | 3.0 | 0.00 | 0.03 | 0.00 | 99 | 1012.8 |
| 20260906083253 | 64 | 294 | 1.0 | 4.0 | 0.00 | 0.03 | 0.00 | 99 | 1012.8 |
| 20260906082750 | 64 | 285 | 2.0 | 6.0 | 0.00 | 0.03 | 0.00 | 99 | 1013.2 |
| 20260906081750 | 64 | 270 | 2.0 | 5.0 | 0.00 | 0.03 | 0.00 | 99 | 1013.2 |
| 20260906081251 | 64 | 320 | 2.0 | 4.0 | 0.00 | 0.03 | 0.00 | 99 | 1013.2 |
| 20260906080249 | 64 | 348 | 1.0 | 2.0 | 0.00 | 0.03 | 0.00 | 99 | 1013.5 |
| 20260906075749 | 64 | 289 | 0.0 | 3.0 | 0.00 | 0.03 | 0.00 | 99 | 1013.5 |
| 20260906075248 | 64 | 0 | 0.0 | 3.0 | 0.00 | 0.03 | 0.00 | 99 | 1013.9 |
| 20260906074749 | 64 | 279 | 0.0 | 2.0 | 0.00 | 0.03 | 0.00 | 99 | 1013.5 |
| 20260906074248 | 64 | 270 | 0.0 | 2.0 | 0.00 | 0.03 | 0.00 | 99 | 1013.5 |
| 20260906073748 | 64 | 289 | 1.0 | 2.0 | 0.00 | 0.03 | 0.00 | 99 | 1013.5 |
| 20260906072747 | 64 | 90 | 1.0 | 2.0 | 0.00 | 0.03 | 0.00 | 99 | 1013.5 |
| 20260906072248 | 64 | 0 | 0.0 | 3.0 | 0.00 | 0.03 | 0.00 | 99 | 1013.5 |
| 20260906071747 | 64 | 279 | 0.0 | 3.0 | 0.00 | 0.03 | 0.00 | 99 | 1013.5 |
| 20260906071246 | 64 | 300 | 0.0 | 1.0 | 0.00 | 0.03 | 0.00 | 99 | 1013.5 |
| 20260906070746 | 64 | 285 | 0.0 | 5.0 | 0.00 | 0.03 | 0.00 | 99 | 1013.5 |
| 20260906070247 | 64 | 270 | 0.0 | 5.0 | 0.00 | 0.03 | 0.00 | 99 | 1013.9 |
| 20260906065745 | 64 | 289 | 1.0 | 3.0 | 0.00 | 0.03 | 0.00 | 99 | 1013.9 |
| 20260906065246 | 64 | 289 | 0.0 | 2.0 | 0.00 | 0.03 | 0.00 | 99 | 1013.5 |
| 20260906064745 | 64 | 0 | 0.0 | 2.0 | 0.00 | 0.03 | 0.00 | 99 | 1013.9 |
| 20260906064244 | 64 | 350 | 0.0 | 2.0 | 0.00 | 0.03 | 0.00 | 99 | 1013.9 |
| 20260906063744 | 65 | 282 | 0.0 | 2.0 | 0.00 | 0.03 | 0.00 | 99 | 1013.9 |
| 20260906063244 | 64 | 340 | 0.0 | 2.0 | 0.00 | 0.03 | 0.00 | 99 | 1013.9 |
| 20260906062745 | 64 | 345 | 0.0 | 2.0 | 0.00 | 0.03 | 0.00 | 99 | 1014.3 |
| 20260906062243 | 65 | 270 | 0.0 | 2.0 | 0.00 | 0.03 | 0.00 | 99 | 1013.9 |
| 20260906061743 | 65 | 285 | 0.0 | 5.0 | 0.00 | 0.03 | 0.00 | 99 | 1013.9 |
| 20260906060742 | 65 | 291 | 1.0 | 4.0 | 0.00 | 0.03 | 0.00 | 99 | 1013.9 |
| 20260906060242 | 65 | 276 | 0.0 | 3.0 | 0.00 | 0.03 | 0.00 | 99 | 1013.9 |
| 20260906055742 | 65 | 263 | 0.0 | 3.0 | 0.00 | 0.03 | 0.00 | 99 | 1013.9 |
| 20260906055241 | 65 | 254 | 1.0 | 3.0 | 0.00 | 0.03 | 0.00 | 99 | 1014.3 |
| 20260906054241 | 65 | 0 | 1.0 | 7.0 | 0.00 | 0.03 | 0.00 | 99 | 1013.9 |
| 20260906053742 | 65 | 286 | 2.0 | 7.0 | 0.00 | 0.03 | 0.00 | 99 | 1013.9 |
| 20260906053240 | 65 | 303 | 2.0 | 3.0 | 0.00 | 0.03 | 0.00 | 99 | 1013.5 |
| 20260906052741 | 65 | 354 | 0.0 | 3.0 | 0.00 | 0.03 | 0.00 | 99 | 1013.9 |
| 20260906052239 | 65 | 258 | 0.0 | 3.0 | 0.00 | 0.03 | 0.00 | 99 | 1013.9 |
| 20260906051741 | 65 | 352 | 2.0 | 3.0 | 0.00 | 0.03 | 0.00 | 99 | 1013.9 |
| 20260906051239 | 65 | 270 | 0.0 | 3.0 | 0.00 | 0.03 | 0.00 | 99 | 1013.9 |
| 20260906050740 | 65 | 297 | 0.0 | 3.0 | 0.00 | 0.03 | 0.00 | 99 | 1014.3 |
| 20260906050238 | 65 | 261 | 0.0 | 3.0 | 0.00 | 0.03 | 0.00 | 99 | 1014.3 |
| 20260906045738 | 65 | 278 | 1.0 | 2.0 | 0.00 | 0.03 | 0.03 | 99 | 1013.9 |
| 20260906044737 | 65 | 287 | 0.0 | 3.0 | 0.00 | 0.03 | 0.03 | 99 | 1013.5 |
| 20260906044238 | 65 | 297 | 1.0 | 3.0 | 0.00 | 0.03 | 0.03 | 99 | 1014.3 |
| 20260906043736 | 65 | 325 | 0.0 | 1.0 | 0.00 | 0.03 | 0.03 | 99 | 1014.3 |
| 20260906042736 | 65 | 286 | 0.0 | 3.0 | 0.00 | 0.03 | 0.03 | 99 | 1014.3 |
| 20260906042237 | 64 | 278 | 0.0 | 2.0 | 0.00 | 0.03 | 0.03 | 99 | 1014.3 |
| 20260906041735 | 65 | 294 | 0.0 | 2.0 | 0.00 | 0.03 | 0.03 | 99 | 1014.3 |
| 20260906041237 | 64 | 292 | 0.0 | 2.0 | 0.00 | 0.03 | 0.03 | 99 | 1014.3 |
| 20260906040735 | 64 | 270 | 0.0 | 3.0 | 0.00 | 0.03 | 0.03 | 99 | 1014.3 |
| 20260906040236 | 65 | 270 | 0.0 | 3.0 | 0.00 | 0.03 | 0.03 | 99 | 1014.3 |
| 20260906035234 | 64 | 265 | 0.0 | 2.0 | 0.00 | 0.03 | 0.03 | 99 | 1014.3 |
| 20260906034733 | 64 | 355 | 0.0 | 2.0 | 0.00 | 0.03 | 0.03 | 99 | 1013.9 |
| 20260906033733 | 64 | 302 | 0.0 | 2.0 | 0.00 | 0.03 | 0.03 | 99 | 1014.3 |
| 20260906033234 | 64 | 346 | 0.0 | 1.0 | 0.00 | 0.03 | 0.03 | 99 | 1013.9 |
| 20260906032733 | 64 | 300 | 0.0 | 1.0 | 0.00 | 0.03 | 0.03 | 99 | 1013.9 |
| 20260906032232 | 64 | 294 | 0.0 | 1.0 | 0.00 | 0.03 | 0.03 | 99 | 1014.3 |
| 20260906031732 | 64 | 261 | 0.0 | 2.0 | 0.00 | 0.03 | 0.03 | 99 | 1013.9 |
| 20260906031233 | 64 | 279 | 0.0 | 2.0 | 0.00 | 0.03 | 0.03 | 99 | 1013.9 |
| 20260906030731 | 64 | 270 | 0.0 | 2.0 | 0.00 | 0.03 | 0.03 | 99 | 1013.9 |
| 20260906030232 | 64 | 279 | 0.0 | 1.0 | 0.00 | 0.03 | 0.03 | 99 | 1013.5 |
| 20260906025731 | 64 | 354 | 0.0 | 1.0 | 0.00 | 0.03 | 0.03 | 99 | 1013.9 |
| 20260906025230 | 64 | 261 | 0.0 | 0.0 | 0.00 | 0.03 | 0.03 | 99 | 1013.5 |
| 20260906024730 | 64 | 294 | 0.0 | 2.0 | 0.00 | 0.03 | 0.03 | 99 | 1013.9 |
| 20260906024231 | 64 | 294 | 0.0 | 2.0 | 0.00 | 0.03 | 0.03 | 99 | 1013.9 |
| 20260906023729 | 65 | 264 | 0.0 | 2.0 | 0.00 | 0.03 | 0.03 | 99 | 1013.9 |
| 20260906023229 | 65 | 278 | 0.0 | 2.0 | 0.00 | 0.03 | 0.03 | 99 | 1013.9 |
| 20260906022729 | 65 | 354 | 0.0 | 2.0 | 0.00 | 0.03 | 0.03 | 99 | 1013.5 |
| 20260906021730 | 65 | 279 | 0.0 | 3.0 | 0.00 | 0.03 | 0.03 | 99 | 1013.5 |
| 20260906021228 | 65 | 259 | 0.0 | 2.0 | 0.00 | 0.03 | 0.03 | 99 | 1013.9 |
| 20260906020729 | 65 | 279 | 0.0 | 2.0 | 0.00 | 0.03 | 0.03 | 99 | 1013.5 |
| 20260906020227 | 65 | 287 | 0.0 | 2.0 | 0.00 | 0.03 | 0.03 | 99 | 1014.3 |
| 20260906015728 | 65 | 262 | 0.0 | 2.0 | 0.00 | 0.03 | 0.03 | 99 | 1013.5 |
| 20260906014728 | 65 | 255 | 0.0 | 2.0 | 0.00 | 0.03 | 0.03 | 98 | 1013.5 |
| 20260906014226 | 65 | 282 | 0.0 | 2.0 | 0.00 | 0.03 | 0.03 | 97 | 1013.5 |
| 20260906013728 | 65 | 263 | 0.0 | 2.0 | 0.00 | 0.03 | 0.03 | 97 | 1013.5 |
| 20260906013227 | 65 | 251 | 0.0 | 2.0 | 0.00 | 0.03 | 0.03 | 97 | 1013.5 |
| 20260906012202 | 65 | 286 | 1.0 | 3.0 | 0.00 | 0.03 | 0.03 | 97 | 1013.2 |
| 20260906011702 | 66 | 0 | 0.0 | 1.0 | 0.00 | 0.03 | 0.03 | 96 | 1013.5 |
| 20260906011201 | 66 | 270 | 0.0 | 2.0 | 0.00 | 0.03 | 0.03 | 96 | 1013.2 |
| 20260906005703 | 67 | 294 | 0.0 | 3.0 | 0.00 | 0.03 | 0.03 | 95 | 1012.8 |
| 20260906005201 | 67 | 341 | 0.0 | 5.0 | 0.00 | 0.03 | 0.03 | 94 | 1012.5 |
| 20260906004702 | 67 | 35 | 0.0 | 5.0 | 0.00 | 0.03 | 0.03 | 93 | 1012.1 |
| 20260906004201 | 67 | 239 | 2.0 | 5.0 | 0.00 | 0.03 | 0.03 | 94 | 1012.1 |
| 20260906003200 | 68 | 257 | 1.0 | 6.0 | 0.00 | 0.03 | 0.03 | 93 | 1011.8 |
| 20260906002701 | 68 | 341 | 2.0 | 5.0 | 0.00 | 0.03 | 0.03 | 92 | 1011.8 |
| 20260906002201 | 68 | 248 | 2.0 | 7.0 | 0.00 | 0.03 | 0.03 | 92 | 1012.1 |
| 20260906001703 | 69 | 263 | 1.0 | 7.0 | 0.00 | 0.03 | 0.03 | 91 | 1012.1 |
| 20260906001201 | 69 | 245 | 2.0 | 6.0 | 0.00 | 0.03 | 0.03 | 91 | 1012.1 |
| 20260906000702 | 69 | 264 | 0.0 | 5.0 | 0.00 | 0.03 | 0.03 | 91 | 1012.1 |
| 20260906000201 | 69 | 289 | 1.0 | 5.0 | 0.00 | 0.03 | 0.03 | 90 | 1011.8 |
| 20260905235703 | 70 | 312 | 2.0 | 5.0 | 0.00 | 0.03 | 0.03 | 89 | 1011.8 |
| 20260905235202 | 70 | 257 | 1.0 | 5.0 | 0.00 | 0.03 | 0.03 | 88 | 1012.1 |
| 20260905234703 | 71 | 270 | 2.0 | 5.0 | 0.00 | 0.03 | 0.03 | 87 | 1012.1 |
| 20260905234201 | 71 | 260 | 2.0 | 5.0 | 0.00 | 0.03 | 0.03 | 86 | 1011.8 |
| 20260905233702 | 70 | 350 | 3.0 | 6.0 | 0.00 | 0.03 | 0.03 | 87 | 1011.8 |
| 20260905233200 | 70 | 285 | 2.0 | 6.0 | 0.00 | 0.03 | 0.03 | 88 | 1011.5 |
| 20260905232703 | 69 | 255 | 1.0 | 7.0 | 0.00 | 0.03 | 0.03 | 88 | 1011.8 |
| 20260905232201 | 69 | 304 | 2.0 | 7.0 | 0.00 | 0.03 | 0.03 | 88 | 1011.8 |
| 20260905231702 | 70 | 304 | 2.0 | 6.0 | 0.00 | 0.03 | 0.03 | 88 | 1012.1 |
| 20260905231201 | 70 | 295 | 2.0 | 5.0 | 0.00 | 0.03 | 0.03 | 87 | 1012.1 |
| 20260905225703 | 71 | 241 | 3.0 | 6.0 | 0.00 | 0.03 | 0.03 | 86 | 1012.1 |
| 20260905224704 | 71 | 266 | 2.0 | 7.0 | 0.00 | 0.03 | 0.03 | 86 | 1012.1 |
| 20260905224201 | 72 | 356 | 2.0 | 6.0 | 0.00 | 0.03 | 0.03 | 85 | 1011.8 |
| 20260905223201 | 73 | 239 | 0.0 | 6.0 | 0.00 | 0.03 | 0.03 | 85 | 1011.8 |
| 20260905222202 | 72 | 233 | 2.0 | 6.0 | 0.00 | 0.03 | 0.03 | 84 | 1011.8 |
| 20260905221701 | 72 | 340 | 4.0 | 8.0 | 0.00 | 0.03 | 0.03 | 86 | 1011.8 |
| 20260905221202 | 70 | 284 | 5.0 | 8.0 | 0.00 | 0.03 | 0.03 | 87 | 1011.8 |
| 20260905220701 | 70 | 324 | 2.0 | 8.0 | 0.00 | 0.03 | 0.03 | 87 | 1011.8 |
| 20260905220202 | 71 | 270 | 2.0 | 6.0 | 0.00 | 0.03 | 0.03 | 86 | 1011.5 |
| 20260905214701 | 71 | 336 | 2.0 | 9.0 | 0.00 | 0.03 | 0.03 | 85 | 1011.5 |
| 20260905214200 | 72 | 254 | 3.0 | 6.0 | 0.00 | 0.03 | 0.03 | 84 | 1011.5 |
| 20260905213700 | 72 | 351 | 4.0 | 9.0 | 0.00 | 0.03 | 0.03 | 85 | 1011.5 |
| 20260905213203 | 73 | 304 | 2.0 | 9.0 | 0.00 | 0.03 | 0.03 | 84 | 1011.8 |
| 20260905212701 | 73 | 0 | 0.0 | 9.0 | 0.00 | 0.03 | 0.03 | 86 | 1011.8 |
| 20260905212203 | 72 | 296 | 9.0 | 9.0 | 0.00 | 0.03 | 0.03 | 86 | 1011.8 |
| 20260905211701 | 71 | 340 | 0.0 | 9.0 | 0.00 | 0.03 | 0.03 | 89 | 1011.8 |
| 20260905210203 | 70 | 312 | 2.0 | 7.0 | 0.00 | 0.03 | 0.03 | 91 | 1011.8 |
| 20260905205701 | 69 | 300 | 3.0 | 7.0 | 0.00 | 0.03 | 0.03 | 91 | 1012.1 |
| 20260905205203 | 70 | 283 | 2.0 | 9.0 | 0.01 | 0.03 | 0.03 | 90 | 1012.1 |
| 20260905204701 | 71 | 324 | 2.0 | 9.0 | 0.01 | 0.03 | 0.03 | 92 | 1012.1 |
| 20260905204203 | 70 | 344 | 0.0 | 7.0 | 0.01 | 0.03 | 0.03 | 94 | 1012.1 |
| 20260905203701 | 68 | 345 | 2.0 | 9.0 | 0.02 | 0.03 | 0.03 | 96 | 1012.1 |
| 20260905203203 | 67 | 292 | 2.0 | 9.0 | 0.03 | 0.03 | 0.03 | 97 | 1012.5 |
| 20260905202701 | 66 | 270 | 3.0 | 5.0 | 0.03 | 0.03 | 0.03 | 97 | 1012.1 |
| 20260905201700 | 66 | 263 | 1.0 | 6.0 | 0.03 | 0.03 | 0.03 | 99 | 1012.1 |
| 20260905201200 | 66 | 348 | 3.0 | 6.0 | 0.03 | 0.03 | 0.03 | 99 | 1012.5 |
| 20260905200701 | 66 | 297 | 3.0 | 6.0 | 0.03 | 0.03 | 0.03 | 99 | 1012.8 |
| 20260905200202 | 66 | 279 | 3.0 | 4.0 | 0.03 | 0.03 | 0.03 | 99 | 1013.2 |
| 20260905195701 | 66 | 286 | 1.0 | 4.0 | 0.03 | 0.03 | 0.03 | 99 | 1013.9 |
| 20260905195202 | 66 | 346 | 0.0 | 4.0 | 0.02 | 0.02 | 0.02 | 99 | 1013.9 |
| 20260905194701 | 66 | 322 | 2.0 | 2.0 | 0.02 | 0.02 | 0.02 | 98 | 1014.3 |
| 20260905194202 | 66 | 15 | 0.0 | 2.0 | 0.02 | 0.02 | 0.02 | 98 | 1014.6 |
| 20260905193701 | 66 | 15 | 0.0 | 2.0 | 0.01 | 0.01 | 0.01 | 97 | 1014.6 |
| 20260905193203 | 66 | 258 | 2.0 | 2.0 | 0.00 | 0.00 | 0.00 | 97 | 1014.6 |
| 20260905192701 | 67 | 209 | 0.0 | 2.0 | 0.00 | 0.00 | 0.00 | 97 | 1014.9 |
| 20260905192201 | 67 | 195 | 0.0 | 0.0 | 0.00 | 0.00 | 0.00 | 96 | 1015.3 |
| 20260905191700 | 67 | 195 | 0.0 | 0.0 | 0.00 | 0.00 | 0.00 | 96 | 1015.6 |
| 20260905191202 | 67 | 195 | 0.0 | 0.0 | 0.00 | 0.00 | 0.00 | 96 | 1015.3 |
| 20260905190203 | 67 | 195 | 0.0 | 0.0 | 0.00 | 0.00 | 0.00 | 94 | 1016.1 |
| 20260905185701 | 67 | 195 | 0.0 | 1.0 | 0.00 | 0.00 | 0.00 | 94 | 1016.1 |
| 20260905185202 | 67 | 195 | 1.0 | 1.0 | 0.00 | 0.00 | 0.00 | 93 | 1016.1 |
| 20260905184701 | 67 | 90 | 0.0 | 1.0 | 0.00 | 0.00 | 0.00 | 92 | 1016.1 |
| 20260905184202 | 67 | 81 | 0.0 | 0.0 | 0.00 | 0.00 | 0.00 | 93 | 1016.4 |
| 20260905183701 | 68 | 15 | 0.0 | 0.0 | 0.00 | 0.00 | 0.00 | 92 | 1016.1 |
| 20260905183202 | 68 | 15 | 0.0 | 1.0 | 0.00 | 0.00 | 0.00 | 92 | 1016.1 |
| 20260905182700 | 68 | 15 | 0.0 | 2.0 | 0.00 | 0.00 | 0.00 | 92 | 1016.1 |
| 20260905182201 | 68 | 195 | 0.0 | 2.0 | 0.00 | 0.00 | 0.00 | 90 | 1015.6 |
| 20260905181700 | 69 | 0 | 0.0 | 3.0 | 0.00 | 0.00 | 0.00 | 90 | 1015.3 |
| 20260905181200 | 69 | 334 | 0.0 | 4.0 | 0.00 | 0.00 | 0.00 | 90 | 1015.3 |
| 20260905180659 | 68 | 265 | 2.0 | 3.0 | 0.00 | 0.00 | 0.00 | 89 | 1015.3 |
| 20260905180200 | 69 | 270 | 0.0 | 3.0 | 0.00 | 0.00 | 0.00 | 88 | 1014.9 |
| 20260905175658 | 69 | 254 | 1.0 | 2.0 | 0.00 | 0.00 | 0.00 | 88 | 1015.3 |
| 20260905175159 | 69 | 277 | 0.0 | 3.0 | 0.00 | 0.00 | 0.00 | 87 | 1014.9 |
| 20260905174657 | 70 | 338 | 3.0 | 4.0 | 0.00 | 0.00 | 0.00 | 86 | 1014.9 |
| 20260905174159 | 71 | 334 | 0.0 | 4.0 | 0.00 | 0.00 | 0.00 | 86 | 1014.9 |
| 20260905173657 | 69 | 301 | 2.0 | 4.0 | 0.00 | 0.00 | 0.00 | 87 | 1014.6 |
| 20260905173158 | 69 | 270 | 0.0 | 4.0 | 0.00 | 0.00 | 0.00 | 89 | 1014.6 |
| 20260905172656 | 69 | 278 | 0.0 | 4.0 | 0.00 | 0.00 | 0.00 | 89 | 1014.9 |
| 20260905172156 | 69 | 286 | 0.0 | 4.0 | 0.00 | 0.00 | 0.00 | 89 | 1014.9 |
| 20260905171656 | 68 | 346 | 2.0 | 3.0 | 0.00 | 0.00 | 0.00 | 90 | 1014.9 |
| 20260905171155 | 67 | 255 | 0.0 | 5.0 | 0.00 | 0.00 | 0.00 | 91 | 1014.9 |
| 20260905170154 | 67 | 306 | 0.0 | 4.0 | 0.00 | 0.00 | 0.00 | 91 | 1014.9 |
| 20260905165156 | 67 | 340 | 1.0 | 7.0 | 0.00 | 0.00 | 0.00 | 92 | 1014.9 |
| 20260905164654 | 67 | 267 | 4.0 | 8.0 | 0.00 | 0.00 | 0.00 | 92 | 1014.6 |
| 20260905164153 | 66 | 270 | 3.0 | 8.0 | 0.00 | 0.00 | 0.00 | 92 | 1014.6 |
| 20260905163653 | 66 | 270 | 2.0 | 6.0 | 0.00 | 0.00 | 0.00 | 92 | 1014.3 |
| 20260905163155 | 67 | 289 | 3.0 | 4.0 | 0.00 | 0.00 | 0.00 | 92 | 1014.3 |
| 20260905162653 | 67 | 11 | 0.0 | 5.0 | 0.00 | 0.00 | 0.00 | 93 | 1014.6 |
| 20260905162154 | 66 | 344 | 2.0 | 5.0 | 0.00 | 0.00 | 0.00 | 92 | 1014.3 |
| 20260905161652 | 66 | 349 | 2.0 | 7.0 | 0.00 | 0.00 | 0.00 | 93 | 1014.6 |
| 20260905160153 | 66 | 102 | 0.0 | 5.0 | 0.00 | 0.00 | 0.00 | 93 | 1013.9 |
| 20260905155651 | 66 | 19 | 2.0 | 4.0 | 0.00 | 0.00 | 0.00 | 93 | 1013.9 |
| 20260905155151 | 66 | 270 | 2.0 | 4.0 | 0.00 | 0.00 | 0.00 | 92 | 1014.3 |
| 20260905154651 | 66 | 139 | 2.0 | 4.0 | 0.00 | 0.00 | 0.00 | 92 | 1013.9 |
| 20260905153151 | 66 | 340 | 0.0 | 9.0 | 0.00 | 0.00 | 0.00 | 92 | 1014.3 |